Weather History for Horseshoe Bay, TX

Change the Weather History Date:

Wednesday, October 31, 2012

  Actual Average (KBMQ) Record (KBMQ)
Temperature  
Mean Temperature 65 °F -  
Max Temperature 80 °F 70 °F 87 °F (1997)
Min Temperature 50 °F 51 °F 46 °F (2002)
Growing Degree Days 15 (Base 50)    
Moisture  
Dew Point 52 °F    
Average Humidity 68    
Maximum Humidity 100    
Minimum Humidity 26    
Precipitation  
Precipitation 0.00 in - - ()
Sea Level Pressure  
Sea Level Pressure 30.02 in    
Wind  
Wind Speed - (North)    
Max Wind Speed -    
Max Gust Speed -    
Visibility 10 miles    
Events      
Averages and records for this station are not official NWS values.
T = Trace of Precipitation, MM = Missing Value Source: NWS Daily Summary

Daily Weather History Graph

Daily Weather History Graph

Search for Another Location

Airport:

Trip Planner

Search our weather history database for the weather conditions in past years. The results will help you decide how hot, cold, wet, or windy it might be!

Date:

Astronomy

Oct. 31, 2012 Rise Set
Actual Time 6:47 AM MDT 5:45 PM MDT
Civil Twilight 6:22 AM MDT 6:10 PM MDT
Nautical Twilight 5:54 AM MDT 6:39 PM MDT
Astronomical Twilight 5:26 AM MDT 7:07 PM MDT
Moon 7:06 PM MDT 8:22 AM MDT
Length of Visible Light 11h 47m
Length of Day
10h 58m
Full, 97% of the Moon is Illuminated
Oct 31
Full
Nov 6
Last Quarter
Nov 13
New
Nov 20
First Quarter
Nov 28
Full

Hourly Weather History & Observations

Time (MDT) Temp. Dew Point Humidity Pressure Visibility Wind Dir Wind Speed Gust Speed Precip Events Conditions
12:15 AM 62.6 °F 50.0 °F 63% 30.01 in 10.0 mi North - - N/A   Clear
12:35 AM 60.8 °F 50.0 °F 68% 30.01 in 10.0 mi North - - N/A   Clear
12:55 AM 60.8 °F 50.0 °F 68% 30.00 in 10.0 mi North - - N/A   Clear
1:15 AM 60.8 °F 51.8 °F 72% 30.01 in 10.0 mi North - - N/A   Clear
1:35 AM 60.8 °F 51.8 °F 72% 30.01 in 10.0 mi North - - N/A   Clear
1:55 AM 60.8 °F 51.8 °F 72% 30.00 in 10.0 mi North - - N/A   Clear
2:15 AM 60.8 °F 53.6 °F 77% 30.01 in 10.0 mi North - - N/A   Clear
2:35 AM 60.8 °F 53.6 °F 77% 30.00 in 10.0 mi North - - N/A   Clear
2:55 AM 60.8 °F 53.6 °F 77% 30.00 in 10.0 mi North - - N/A   Clear
3:15 AM 57.2 °F 51.8 °F 82% 30.00 in 10.0 mi North - - N/A   Clear
3:35 AM 55.4 °F 51.8 °F 88% 30.00 in 10.0 mi North - - N/A   Clear
3:55 AM 57.2 °F 53.6 °F 88% 30.00 in 10.0 mi North - - N/A   Clear
4:15 AM 55.4 °F 51.8 °F 88% 30.01 in 10.0 mi North - - N/A   Clear
4:35 AM 53.6 °F 51.8 °F 94% 30.01 in 10.0 mi North - - N/A   Clear
4:55 AM 53.6 °F 51.8 °F 94% 30.01 in 10.0 mi North - - N/A   Clear
5:15 AM 51.8 °F 51.8 °F 100% 30.01 in 10.0 mi North - - N/A   Clear
5:35 AM 51.8 °F 51.8 °F 100% 30.01 in 10.0 mi North - - N/A   Clear
5:55 AM 50.0 °F 50.0 °F 100% 30.02 in 10.0 mi North - - N/A   Clear
6:15 AM 50.0 °F 50.0 °F 100% 30.02 in 10.0 mi North - - N/A   Clear
6:35 AM 50.0 °F 50.0 °F 100% 30.03 in 10.0 mi North - - N/A   Clear
6:55 AM 50.0 °F 50.0 °F 100% 30.03 in 10.0 mi North - - N/A   Scattered Clouds
7:15 AM 51.8 °F 51.8 °F 100% 30.04 in 10.0 mi North - - N/A   Overcast
7:35 AM 55.4 °F 55.4 °F 100% 30.05 in 10.0 mi North - - N/A   Overcast
7:55 AM 59.0 °F 59.0 °F 100% 30.06 in 7.0 mi North - - N/A   Overcast
8:15 AM 59.0 °F 59.0 °F 100% 30.07 in 7.0 mi North - - N/A   Overcast
8:35 AM 60.8 °F 60.8 °F 100% 30.07 in 10.0 mi North - - N/A   Mostly Cloudy
8:55 AM 62.6 °F 59.0 °F 88% 30.07 in 10.0 mi North - - N/A   Mostly Cloudy
9:15 AM 62.6 °F 59.0 °F 88% 30.07 in 10.0 mi North - - N/A   Scattered Clouds
9:35 AM 64.4 °F 59.0 °F 83% 30.08 in 10.0 mi North - - N/A   Clear
9:55 AM 66.2 °F 59.0 °F 78% 30.08 in 10.0 mi North - - N/A   Clear
10:15 AM 68.0 °F 59.0 °F 73% 30.08 in 10.0 mi North - - N/A   Clear
10:35 AM 69.8 °F 59.0 °F 68% 30.09 in 10.0 mi North - - N/A   Clear
10:55 AM 69.8 °F 59.0 °F 68% 30.08 in 10.0 mi North - - N/A   Clear
11:15 AM 71.6 °F 59.0 °F 64% 30.07 in 10.0 mi North - - N/A   Clear
11:35 AM 73.4 °F 59.0 °F 61% 30.07 in 10.0 mi North - - N/A   Clear
11:55 AM 77.0 °F 57.2 °F 50% 30.06 in 10.0 mi North - - N/A   Clear
12:15 PM 77.0 °F 55.4 °F 47% 30.05 in 10.0 mi North - - N/A   Clear
12:35 PM 77.0 °F 55.4 °F 47% 30.03 in 10.0 mi North - - N/A   Clear
12:55 PM 78.8 °F 53.6 °F 42% 30.03 in 10.0 mi North - - N/A   Clear
1:15 PM 78.8 °F 53.6 °F 42% 30.02 in 10.0 mi North - - N/A   Clear
1:35 PM 78.8 °F 53.6 °F 42% 30.01 in 10.0 mi North - - N/A   Clear
1:55 PM 78.8 °F 50.0 °F 36% 30.00 in 10.0 mi North - - N/A   Clear
2:15 PM 80.6 °F 50.0 °F 34% 29.99 in 10.0 mi North - - N/A   Clear
2:35 PM 80.6 °F 46.4 °F 30% 29.99 in 10.0 mi North - - N/A   Clear
2:55 PM 80.6 °F 46.4 °F 30% 29.99 in 10.0 mi North - - N/A   Clear
3:15 PM 80.6 °F 46.4 °F 30% 29.98 in 10.0 mi North - - N/A   Clear
3:35 PM 80.6 °F 44.6 °F 28% 29.98 in 10.0 mi North - - N/A   Clear
3:55 PM 80.6 °F 44.6 °F 28% 29.98 in 10.0 mi North - - N/A   Clear
4:15 PM 80.6 °F 44.6 °F 28% 29.98 in 10.0 mi North - - N/A   Clear
4:35 PM 80.6 °F 42.8 °F 26% 29.98 in 10.0 mi North - - N/A   Clear
4:55 PM 80.6 °F 42.8 °F 26% 29.98 in 10.0 mi North - - N/A   Clear
5:15 PM 78.8 °F 46.4 °F 32% 29.98 in 10.0 mi North - - N/A   Clear
5:35 PM 73.4 °F 50.0 °F 44% 29.99 in 10.0 mi North - - N/A   Clear
6:15 PM 66.2 °F 51.8 °F 60% 29.99 in 10.0 mi North - - N/A   Clear
6:35 PM 64.4 °F 51.8 °F 64% 30.00 in 10.0 mi North - - N/A   Clear
6:55 PM 62.6 °F 50.0 °F 63% 30.00 in 10.0 mi North - - N/A   Clear
7:15 PM 60.8 °F 50.0 °F 68% 30.01 in 10.0 mi North - - N/A   Clear
7:35 PM 62.6 °F 50.0 °F 63% 30.01 in 10.0 mi North - - N/A   Clear
8:15 PM 60.8 °F 50.0 °F 68% 30.02 in 10.0 mi North - - N/A   Clear
8:35 PM 60.8 °F 50.0 °F 68% 30.02 in 10.0 mi North - - N/A   Clear
8:55 PM 60.8 °F 50.0 °F 68% 30.03 in 10.0 mi North - - N/A   Clear
9:15 PM 64.4 °F 51.8 °F 64% 30.03 in 10.0 mi North - - N/A   Clear
9:35 PM 64.4 °F 51.8 °F 64% 30.03 in 10.0 mi North - - N/A   Clear
9:55 PM 62.6 °F 51.8 °F 68% 30.03 in 10.0 mi North - - N/A   Clear
10:15 PM 62.6 °F 51.8 °F 68% 30.04 in 10.0 mi North - - N/A   Clear
10:35 PM 60.8 °F 51.8 °F 72% 30.04 in 10.0 mi North - - N/A   Clear
10:55 PM 59.0 °F 51.8 °F 77% 30.04 in 10.0 mi North - - N/A   Clear
11:15 PM 57.2 °F 51.8 °F 82% 30.04 in 10.0 mi North - - N/A   Clear
11:35 PM 55.4 °F 50.0 °F 82% 30.04 in 10.0 mi North - - N/A   Clear
11:55 PM 55.4 °F 50.0 °F 82% 30.04 in 10.0 mi North - - N/A   Clear